Location: Observatoire
(46.1952°N, 5.3391°E)
Time: 14:36:57
(UTC+01:00)

A-11 Canister half - Pass Details

Date: 19 February 2026
Orbit: 1513 x 1687 km, 47.2° (Epoch: 11 March)

Event Time Altitude Azimuth Distance (km) Brightness Sun altitude
Rises 23:06:19 0° 259° (W) 4,935 11.9 -48.2°
Reaches altitude 10° 23:09:30 10° 260° (W) 3,940 11.3 -48.6°
Enters shadow 23:13:02 26° 261° (W) 2,883 10.5 -49.0°
Maximum altitude 23:19:41 88° 350° (N) 1,657 - -49.7°
Drops below altitude 10° 23:29:34 10° 82° (E) 3,831 - -50.7°
Sets 23:32:38 0° 82° (E) 4,793 - -50.9°
